EST,Max TemperatureF,Mean TemperatureF,Min TemperatureF,Max Dew PointF,MeanDew PointF,Min DewpointF,Max Humidity, Mean Humidity, Min Humidity, Max Sea Level PressureIn, Mean Sea Level PressureIn, Min Sea Level PressureIn, Max VisibilityMiles, Mean VisibilityMiles, Min VisibilityMiles, Max Wind SpeedMPH, Mean Wind SpeedMPH, Max Gust SpeedMPH,PrecipitationIn, CloudCover, Events, WindDirDegrees
2013-1-1,41,37,33,41,36,32,100,95,87,30.08,30.02,29.94,10,4,0,10,3,,0.00,8,,26
2013-1-2,35,34,32,34,31,28,100,91,81,30.17,30.11,30.02,10,9,4,7,2,,0.00,8,,354
2013-1-3,41,34,28,30,27,21,93,79,49,30.33,30.22,30.15,10,10,7,8,1,,0.00,2,,298
2013-1-4,37,30,23,27,23,21,100,76,56,30.39,30.35,30.32,10,10,7,13,2,17,0.00,3,,263
2013-1-5,42,32,21,30,25,21,100,77,46,30.41,30.31,30.21,10,9,7,5,0,,0.00,3,,75
2013-1-6,44,38,33,32,29,27,87,71,53,30.30,30.17,30.08,10,10,10,21,2,26,0.00,8,,271
2013-1-7,50,40,30,28,25,21,93,65,32,30.41,30.33,30.28,10,10,10,8,2,,0.00,2,,80
2013-1-8,55,42,28,36,30,27,93,72,41,30.39,30.31,30.28,10,10,5,7,2,,0.00,0,,122
2013-1-9,51,43,35,50,41,32,100,88,70,30.48,30.39,30.30,10,5,0,9,1,,0.00,7,,47
2013-1-10,62,53,44,50,47,43,100,81,59,30.48,30.37,30.19,10,7,0,13,2,24,0.00,6,,96
2013-1-11,68,62,55,55,52,46,88,72,60,30.18,30.09,30.04,10,10,5,16,5,28,0.00,7,,157
2013-1-12,68,64,59,61,58,55,100,82,68,30.14,30.07,30.00,10,9,2,7,1,,0.00,7,,166
2013-1-13,66,62,53,59,54,50,100,78,56,30.06,30.00,29.96,10,8,1,17,4,22,0.00,6,,189
2013-1-14,51,42,33,48,37,32,100,88,81,30.32,30.20,30.09,10,8,3,14,5,22,0.00,8,,13
2013-1-15,37,35,33,36,34,32,100,94,87,30.23,30.11,29.98,10,7,1,9,2,,0.00,8,,70
2013-1-16,42,38,35,41,36,34,100,94,87,30.08,30.00,29.92,10,7,0,12,3,16,0.00,8,,291
2013-1-17,37,34,30,37,31,27,100,90,70,30.31,30.09,30.01,10,8,0,10,1,18,0.00,8,,44
2013-1-18,39,32,26,30,28,27,100,85,61,30.50,30.44,30.33,10,8,0,8,2,,0.00,4,,100
2013-1-19,50,38,26,32,27,23,100,70,35,30.39,30.26,30.13,10,10,5,6,2,,0.00,0,,139
2013-1-20,51,42,30,32,26,16,93,64,26,30.17,30.13,30.10,10,10,10,13,3,20,0.00,0,,256
2013-1-21,41,32,23,28,16,5,100,59,28,30.16,30.10,30.04,10,10,3,23,4,33,0.00,1,,263
2013-1-22,30,22,15,3,-1,-4,58,37,23,30.30,30.24,30.15,10,10,10,18,9,22,0.00,3,,281
2013-1-23,37,29,21,21,9,1,64,44,29,30.32,30.21,30.06,10,10,10,9,4,,0.00,5,,244
2013-1-24,39,30,21,28,7,-6,65,43,23,30.42,30.30,30.06,10,10,10,25,9,32,0.00,2,,1
2013-1-25,32,26,21,32,21,1,100,77,31,30.34,30.14,30.03,10,6,0,7,2,20,0.00,7,,162
2013-1-26,32,29,26,32,28,25,100,88,80,30.38,30.26,30.15,10,9,4,10,4,,0.00,6,,288
2013-1-27,44,34,24,34,28,23,93,75,57,30.41,30.35,30.29,10,9,5,6,2,,0.00,3,,77
2013-1-28,53,47,41,48,40,32,94,75,66,30.31,30.25,30.20,10,9,1,12,3,20,0.00,7,,63
2013-1-29,68,56,44,54,49,45,100,75,56,30.21,30.08,29.87,10,7,0,10,2,17,0.00,7,,146
2013-1-30,68,54,37,55,49,34,100,80,60,29.85,29.61,29.47,10,7,0,26,6,40,0.00,8,,170
2013-1-31,37,34,30,34,23,19,87,67,52,29.97,29.89,29.63,10,9,5,25,14,45,0.00,8,,263